[[{"header":{"parameterUnit":"m.s-1","parameterCategory":2,"la1":30.2991,"la2":30.254,"lo1":-89.0895,"lo2":-89.0444,"dy":0.0017,"dx":0.0017,"nx":28,"ny":28,"refTime":"2024-06-05T09:00:00:Z","depth":"0","parameterNumber":2,"parameterNumberName":"U-component_of_CURRENTS"},"data":[0,0,0,0,0,0,0,0,0,0,0,0,0,0,0,0,0,0,0,0,0,0,0,0,0,0,0,0,0,0,0,0,0,0,0,0,0,0,0,0,0,0,0,0,0,0,0,0,0,0,0,0,0,0,0,0,0,0,0.3907,0.3909,0,0.4043,0.4044,0.4045,0.4037,0.4036,0.4034,0.4033,0.4069,0.4071,0.4073,0,0,0,0,0,0,0,0,0,0,0,0,0,0.3632,0.3637,0.3906,0.3909,0.3911,0.4043,0.4044,0.4045,0.4037,0.4035,0.4034,0.4032,0.4068,0.4071,0.4073,0,0,0,0,0,0,0,0,0,0,0,0,0,0.3752,0.3638,0.3906,0.3928,0.3932,0.4042,0.4044,0.4045,0.4037,0.4035,0.4033,0.4031,0.4067,0.4071,0.4074,0.4136,0,0,0.4084,0.4086,0,0,0,0,0,0,0,0,0.3745,0.3761,0.3922,0.3927,0.3931,0.4027,0.3961,0.4073,0.4038,0.399,0.4033,0.403,0.4051,0.4056,0.4078,0.4137,0.4139,0.4084,0.4086,0.4088,0.4089,0,0,0,0,0,0,0,0.3737,0.3755,0.3954,0.3925,0.3931,0.3929,0.3943,0.3982,0.4024,0.3994,0.3996,0.4022,0.4052,0.4075,0.4079,0.4139,0.4084,0.4087,0.4089,0.4091,0.423,0.4232,0,0,0,0,0,0,0.3737,0.3748,0.3949,0.3958,0.3839,0.3936,0.3951,0.3993,0.4025,0.4031,0.4024,0.4021,0.407,0.4075,0.408,0.4149,0.4088,0.4091,0.4093,0.4228,0.423,0.4232,0,0,0,0,0,0,0.3731,0.3755,0.3944,0.386,0.3885,0.3944,0.3989,0.3996,0.4019,0.405,0.4052,0.4039,0.4069,0.4075,0.4116,0.415,0.4092,0.4096,0.4226,0.4229,0.4231,0.4292,0,0,0,0,0,0,0.3723,0.3752,0.3784,0.3861,0.389,0.4014,0.3993,0.4001,0.4042,0.404,0.4065,0.4066,0.4068,0.4111,0.4119,0.4154,0.4098,0.4224,0.4228,0.4231,0.4287,0.4296,0.4303,0,0,0,0,0,0.3713,0.3779,0.3785,0.381,0.3932,0.4016,0.403,0.4059,0.4045,0.4067,0.4078,0.4065,0.4136,0.4116,0.4125,0.4161,0.4223,0.4227,0.423,0.4284,0.4294,0.4303,0,0,0,0,0,0,0.3681,0.3788,0.3795,0.389,0.3945,0.4017,0.406,0.4068,0.4098,0.4092,0.4095,0.4099,0.4146,0.415,0.4126,0.421,0.4175,0.4181,0.4213,0.4223,0.423,0.4237,0.4101,0,0,0,0,0,0.369,0.3767,0.3843,0.3919,0.3949,0.3999,0.4037,0.4054,0.4096,0.4107,0.4123,0.4142,0.4174,0.4192,0.4217,0.4274,0.4303,0.43,0.4308,0.4314,0.4327,0.4365,0.4377,0.4245,0.4245,0.4245,0,0,0.3701,0.3771,0.3813,0.3917,0.3963,0.4022,0.4016,0.4084,0.4125,0.4108,0.4164,0.4173,0.4194,0.4248,0.427,0.4254,0.4384,0.4319,0.4325,0.4333,0.437,0.4383,0.4394,0.4247,0.4247,0.4247,0,0,0.3761,0.3819,0.3892,0.3943,0.4023,0.4054,0.4071,0.4138,0.4158,0.4217,0.4209,0.4238,0.4292,0.4312,0.433,0.4401,0.442,0.4408,0.446,0.4497,0.4508,0.4518,0.4639,0.4658,0.4414,0.4414,0.4414,0,0.376,0.3869,0.3923,0.3996,0.4044,0.4065,0.4128,0.4166,0.4231,0.4253,0.4237,0.4315,0.4325,0.4394,0.4415,0.4419,0.4468,0.4421,0.4507,0.4517,0.4526,0.4646,0.4668,0.4418,0.4417,0.4417,0.4417,0,0.387,0.3943,0.3994,0.4087,0.4137,0.4204,0.4253,0.4288,0.4302,0.433,0.4392,0.4412,0.4453,0.4465,0.4466,0.4541,0.457,0.4509,0.4481,0.4543,0.4667,0.4688,0.4422,0.4421,0.442,0.4419,0,0,0.3902,0.4039,0.4054,0.4093,0.4189,0.4235,0.4307,0.4373,0.4412,0.4452,0.4515,0.456,0.4555,0.4575,0.4579,0.4614,0.4739,0.4597,0.4597,0.4717,0.4896,0.4918,0.4943,0.4685,0.4688,0.4689,0.4981,0,0.3963,0.4095,0.4151,0.4246,0.4311,0.4344,0.4407,0.446,0.4498,0.4559,0.4582,0.4642,0.4604,0.4634,0.4662,0.4711,0.4786,0.467,0.4818,0.4825,0.4833,0.4963,0.474,0.4978,0.5002,0.5005,0.5008,0,0.4045,0.4129,0.4231,0.4322,0.435,0.4393,0.4474,0.4537,0.4616,0.4653,0.4703,0.4723,0.481,0.4749,0.4886,0.4815,0.4873,0.4907,0.4917,0.4924,0.4883,0.4907,0.5015,0.4902,0.504,0.5037,0.5035,0,0.404,0.4172,0.4244,0.4283,0.4392,0.4424,0.4474,0.4554,0.4616,0.4719,0.4777,0.485,0.4921,0.497,0.5058,0.4978,0.5221,0.511,0.5206,0.5212,0.5045,0.5031,0.5049,0.522,0.5219,0.5218,0.5217,0,0.4091,0.4133,0.4238,0.4281,0.4361,0.4426,0.4503,0.4569,0.467,0.4749,0.4819,0.4911,0.4971,0.5103,0.514,0.5285,0.5299,0.527,0.5287,0.5069,0.5054,0.4962,0.4894,0.5229,0.5227,0.5225,0.5223,0,0.4058,0.4129,0.421,0.4326,0.4361,0.441,0.4524,0.4571,0.4685,0.4801,0.4847,0.5004,0.5186,0.5295,0.5437,0.542,0.5397,0.5579,0.5376,0.5362,0.527,0.5213,0.5108,0.4966,0.5713,0.5715,0.5717,0,0.4041,0.409,0.4227,0.4266,0.4309,0.4393,0.4446,0.457,0.463,0.4849,0.4903,0.5138,0.527,0.5551,0.5597,0.5746,0.5537,0.5609,0.5382,0.5293,0.5241,0.5013,0.4881,0.5226,0.5223,0.5221,0.522,0,0.4004,0.4048,0.4115,0.4221,0.4276,0.4351,0.4438,0.449,0.4637,0.4753,0.4917,0.505,0.5359,0.5403,0.5634,0.5666,0.5327,0.5576,0.5487,0.4891,0.4634,0.4495,0.5083,0.5203,0.5205,0.5206,0.5207,0.5208,0.3934,0.3974,0.406,0.4145,0.4209,0.4251,0.425,0.4351,0.4441,0.4547,0.4792,0.4903,0.5117,0.5395,0.5418,0.5341,0.5295,0.5158,0.5125,0.4926,0.4668,0.5291,0.5407,0.5409,0.5412,0.5414,0.5415,0,0.3839,0.3894,0.3972,0.4037,0.4045,0.413,0.4186,0.4137,0.4165,0.4363,0.4487,0.4649,0.4753,0.4901,0.5006,0.4887,0.4603,0.4775,0.4348,0.426,0.483,0.4685,0.4641,0.4641,0.4641,0.4641,0.4641,0.4641,0.3775,0.3804,0.3866,0.3847,0.3879,0.3801,0.3791,0.3758,0.3829,0.3871,0.3955,0.4126,0.4474,0.4687,0.4632,0.4521,0.4177,0.4021,0.4041,0.4405,0.4434,0.4461,0.4308,0.4185,0.4184,0.3237,0.323,0.3225]},{"header":{"parameterUnit":"m.s-1","parameterCategory":2,"la1":30.2991,"la2":30.254,"lo1":-89.0895,"lo2":-89.0444,"dy":0.0017,"dx":0.0017,"nx":28,"ny":28,"refTime":"2024-06-05T09:00:00:Z","depth":"0","parameterNumber":3,"parameterNumberName":"V-component_of_CURRENTS"},"data":[0,0,0,0,0,0,0,0,0,0,0,0,0,0,0,0,0,0,0,0,0,0,0,0,0,0,0,0,0,0,0,0,0,0,0,0,0,0,0,0,0,0,0,0,0,0,0,0,0,0,0,0,0,0,0,0,0,0,-0.0457,-0.0459,0,-0.0657,-0.0659,-0.0661,-0.0751,-0.075,-0.075,-0.075,-0.0959,-0.0965,-0.097,0,0,0,0,0,0,0,0,0,0,0,0,0,-0.0226,-0.023,-0.0457,-0.0459,-0.0462,-0.0656,-0.0659,-0.0662,-0.0751,-0.075,-0.075,-0.075,-0.0957,-0.0964,-0.0971,0,0,0,0,0,0,0,0,0,0,0,0,0,-0.0367,-0.0231,-0.0457,-0.0529,-0.0537,-0.0656,-0.0659,-0.0663,-0.0751,-0.075,-0.075,-0.0749,-0.0955,-0.0963,-0.0972,-0.1037,0,0,-0.0999,-0.1003,0,0,0,0,0,0,0,0,-0.0359,-0.0376,-0.0516,-0.0524,-0.0533,-0.0677,-0.0654,-0.0788,-0.0751,-0.0671,-0.075,-0.0749,-0.0865,-0.0881,-0.0922,-0.1047,-0.1056,-0.1,-0.1005,-0.1009,-0.1011,0,0,0,0,0,0,0,-0.0349,-0.0368,-0.0537,-0.0518,-0.0529,-0.0576,-0.0595,-0.0681,-0.077,-0.0678,-0.0685,-0.0705,-0.087,-0.0913,-0.0927,-0.1059,-0.0999,-0.1007,-0.1013,-0.1016,-0.1265,-0.1266,0,0,0,0,0,0,-0.0319,-0.0359,-0.0531,-0.0543,-0.0442,-0.058,-0.0601,-0.0633,-0.0769,-0.0789,-0.0705,-0.0708,-0.0898,-0.0917,-0.0935,-0.1014,-0.1009,-0.1017,-0.1022,-0.1263,-0.1265,-0.1266,0,0,0,0,0,0,-0.0314,-0.0333,-0.0523,-0.0453,-0.0481,-0.0584,-0.0619,-0.0637,-0.0679,-0.0789,-0.0809,-0.0728,-0.0898,-0.0922,-0.1017,-0.1023,-0.1021,-0.1029,-0.1262,-0.1264,-0.1266,-0.1177,0,0,0,0,0,0,-0.0306,-0.033,-0.0348,-0.0452,-0.0484,-0.0594,-0.062,-0.0641,-0.0692,-0.0698,-0.0816,-0.0835,-0.09,-0.1004,-0.1026,-0.1035,-0.1036,-0.126,-0.1263,-0.1265,-0.1178,-0.1176,-0.1173,0,0,0,0,0,-0.0298,-0.0328,-0.0348,-0.0369,-0.0503,-0.0595,-0.0616,-0.0688,-0.0693,-0.0721,-0.0798,-0.0831,-0.1034,-0.1012,-0.1038,-0.105,-0.1259,-0.1262,-0.1265,-0.1179,-0.1176,-0.1173,0,0,0,0,0,0,-0.0241,-0.0343,-0.0367,-0.0427,-0.0501,-0.0609,-0.0646,-0.0683,-0.0767,-0.0769,-0.0857,-0.0883,-0.0966,-0.1028,-0.1001,-0.1131,-0.1149,-0.1158,-0.1076,-0.1074,-0.1071,-0.1002,-0.1043,0,0,0,0,0,-0.0234,-0.0281,-0.0377,-0.0424,-0.0457,-0.0545,-0.059,-0.0636,-0.072,-0.0756,-0.0833,-0.0919,-0.1001,-0.105,-0.1134,-0.1212,-0.1207,-0.1236,-0.1233,-0.1231,-0.1194,-0.1207,-0.12,-0.1276,-0.1276,-0.1276,0,0,-0.0223,-0.0285,-0.0312,-0.0414,-0.0475,-0.052,-0.0572,-0.0638,-0.0669,-0.0766,-0.0834,-0.0916,-0.102,-0.1103,-0.1145,-0.1154,-0.1207,-0.1234,-0.1231,-0.1195,-0.1209,-0.12,-0.1193,-0.1278,-0.1278,-0.1277,0,0,-0.0216,-0.0279,-0.0308,-0.0366,-0.0453,-0.0509,-0.0519,-0.0622,-0.0662,-0.0744,-0.0812,-0.089,-0.1026,-0.1093,-0.1145,-0.1183,-0.1191,-0.1218,-0.1153,-0.1166,-0.1158,-0.1151,-0.1115,-0.1106,-0.1218,-0.1218,-0.1218,0,-0.0191,-0.024,-0.033,-0.0368,-0.0395,-0.0491,-0.0505,-0.0576,-0.0693,-0.0707,-0.0752,-0.0914,-0.1014,-0.1085,-0.1105,-0.1172,-0.1158,-0.115,-0.1156,-0.1149,-0.1143,-0.1109,-0.1099,-0.1214,-0.1215,-0.1215,-0.1216,0,-0.0202,-0.0235,-0.0257,-0.0324,-0.0374,-0.0407,-0.0496,-0.0539,-0.0588,-0.0646,-0.0723,-0.086,-0.0938,-0.1002,-0.1071,-0.109,-0.1085,-0.1143,-0.1145,-0.1129,-0.1096,-0.1087,-0.1209,-0.121,-0.1211,-0.1212,0,0,-0.014,-0.0237,-0.0238,-0.0243,-0.0341,-0.0375,-0.0417,-0.0467,-0.0461,-0.0588,-0.0577,-0.0755,-0.0801,-0.0862,-0.0962,-0.0996,-0.0964,-0.1042,-0.1044,-0.097,-0.0939,-0.0881,-0.0867,-0.1014,-0.1013,-0.1012,-0.0922,0,-0.0102,-0.0125,-0.0193,-0.0199,-0.0208,-0.0287,-0.031,-0.037,-0.0426,-0.0449,-0.0573,-0.0622,-0.0758,-0.0781,-0.084,-0.0935,-0.0941,-0.0979,-0.0995,-0.0994,-0.0917,-0.0855,-0.084,-0.0754,-0.0914,-0.0913,-0.0912,0,-0.0069,-0.0086,-0.0074,-0.0101,-0.011,-0.0125,-0.0131,-0.0168,-0.0231,-0.0268,-0.0334,-0.0424,-0.0505,-0.0614,-0.0729,-0.0741,-0.0813,-0.0887,-0.0887,-0.0849,-0.0921,-0.0806,-0.0733,-0.099,-0.0899,-0.09,-0.0901,0,0.0051,0.0008,0.0038,0.002,-0.0039,-0.0023,-0.0039,-0.0092,-0.0078,-0.0126,-0.0093,-0.0237,-0.0251,-0.0397,-0.0562,-0.0632,-0.0645,-0.0771,-0.0775,-0.0771,-0.0766,-0.0763,-0.091,-0.0802,-0.0803,-0.0803,-0.0803,0,0.0131,0.0155,0.0102,0.0116,0.0174,0.0094,0.0157,0.0122,0.0117,0.0191,0.0028,0.0085,-0.0191,-0.0249,-0.0448,-0.0546,-0.0551,-0.0712,-0.0735,-0.0735,-0.0731,-0.0963,-0.1106,-0.08,-0.08,-0.0801,-0.0802,0,0.0257,0.0215,0.0251,0.0224,0.023,0.0278,0.0304,0.0356,0.0333,0.0443,0.0454,0.0367,0.0305,0.0056,-0.0137,-0.034,-0.0601,-0.0517,-0.0468,-0.0486,-0.0771,-0.0908,-0.1002,-0.1104,-0.052,-0.0517,-0.0516,0,0.0319,0.0346,0.0358,0.0399,0.0397,0.045,0.0504,0.0479,0.0553,0.0643,0.0734,0.0714,0.0749,0.0491,0.0126,-0.0152,-0.0441,-0.0339,-0.05,-0.0733,-0.0904,-0.1024,-0.1115,-0.0458,-0.0455,-0.0454,-0.0452,0,0.0444,0.0446,0.0474,0.0563,0.0629,0.0705,0.0788,0.0884,0.0912,0.1037,0.1219,0.127,0.1045,0.0785,0.0382,0.0126,-0.0515,-0.031,-0.0588,-0.0866,-0.0969,-0.1095,-0.055,-0.0437,-0.0438,-0.044,-0.044,-0.0441,0.0547,0.0602,0.0641,0.0731,0.0821,0.0964,0.1077,0.1199,0.1384,0.1606,0.1614,0.1757,0.1305,0.0765,0.0402,-0.0313,-0.0351,-0.0585,-0.0723,-0.0816,-0.0945,-0.032,-0.0223,-0.0223,-0.0223,-0.0223,-0.0224,0,0.0657,0.0709,0.0805,0.092,0.1062,0.107,0.1267,0.1409,0.1688,0.1905,0.2087,0.1967,0.1414,0.0767,-0.0152,-0.066,-0.0913,-0.0973,-0.1205,-0.1276,-0.0748,-0.0782,-0.0757,-0.0757,-0.0757,-0.0757,-0.0756,-0.0756,0.0716,0.082,0.0864,0.1102,0.1206,0.1419,0.1555,0.1784,0.1969,0.2276,0.2388,0.2427,0.1932,0.0258,-0.0925,-0.1216,-0.16,-0.1638,-0.1839,-0.1574,-0.1553,-0.1532,-0.1603,-0.175,-0.1751,-0.234,-0.2346,-0.2351]}],[{"header":{"parameterUnit":"m.s-1","parameterCategory":2,"la1":30.2991,"la2":30.254,"lo1":-89.0895,"lo2":-89.0444,"dy":0.0017,"dx":0.0017,"nx":28,"ny":28,"refTime":"2024-06-05T09:00:00:Z","depth":"2","parameterNumber":2,"parameterNumberName":"U-component_of_CURRENTS"},"data":[0,0,0,0,0,0,0,0,0,0,0,0,0,0,0,0,0,0,0,0,0,0,0,0,0,0,0,0,0,0,0,0,0,0,0,0,0,0,0,0,0,0,0,0,0,0,0,0,0,0,0,0,0,0,0,0,0,0,0.2615,0.2615,0,0.2678,0.2679,0.2681,0.276,0.276,0.276,0.276,0.2876,0.2879,0.2881,0,0,0,0,0,0,0,0,0,0,0,0,0,0.2591,0.2591,0.2615,0.2615,0.2615,0.2677,0.2679,0.2681,0.276,0.276,0.276,0.276,0.2875,0.2878,0.2882,0,0,0,0,0,0,0,0,0,0,0,0,0,0.2632,0.2592,0.2616,0.2653,0.2657,0.2677,0.2679,0.2682,0.276,0.276,0.276,0.2761,0.2874,0.2878,0.2882,0.2901,0,0,0.2895,0.2897,0,0,0,0,0,0,0,0,0.263,0.2635,0.2648,0.2651,0.2654,0.2701,0.2712,0.2754,0.2759,0.2732,0.276,0.2761,0.2815,0.2824,0.285,0.2907,0.2912,0.2896,0.2898,0.29,0.2901,0,0,0,0,0,0,0,0.2627,0.2632,0.2652,0.2647,0.2651,0.2675,0.2683,0.2721,0.278,0.2735,0.2738,0.2727,0.2819,0.2846,0.2853,0.2913,0.2895,0.2899,0.2902,0.2903,0.3121,0.3124,0,0,0,0,0,0,0.2595,0.263,0.2649,0.2652,0.263,0.2674,0.2683,0.2695,0.2779,0.2788,0.2726,0.273,0.2838,0.2848,0.2858,0.2987,0.29,0.2904,0.2906,0.3118,0.3122,0.3125,0,0,0,0,0,0,0.2595,0.2597,0.2647,0.2632,0.2638,0.2673,0.2687,0.2696,0.2735,0.277,0.2783,0.2755,0.2839,0.2852,0.2909,0.2988,0.2906,0.291,0.3114,0.3119,0.3124,0.318,0,0,0,0,0,0,0.2594,0.2598,0.2612,0.263,0.2638,0.2707,0.2685,0.2696,0.2721,0.2727,0.2798,0.2809,0.284,0.2903,0.2914,0.2992,0.2913,0.311,0.3117,0.3122,0.3174,0.3186,0.3196,0,0,0,0,0,0.2594,0.2601,0.2613,0.2615,0.2651,0.2709,0.272,0.275,0.2721,0.2778,0.2794,0.2807,0.2951,0.2907,0.292,0.3002,0.3107,0.3115,0.3122,0.3169,0.3184,0.3196,0,0,0,0,0,0,0.2603,0.2609,0.2623,0.2635,0.2691,0.2719,0.2741,0.2751,0.2807,0.2811,0.2824,0.2839,0.2938,0.295,0.2901,0.3086,0.3042,0.3052,0.3074,0.3088,0.3099,0.3066,0.2917,0,0,0,0,0,0.2606,0.262,0.2648,0.2671,0.2683,0.2712,0.2733,0.2775,0.2806,0.2832,0.2889,0.2936,0.2977,0.3009,0.3079,0.3148,0.3168,0.3219,0.323,0.3239,0.3224,0.329,0.3304,0.3149,0.3149,0.3149,0,0,0.2609,0.2618,0.2625,0.2675,0.2701,0.2756,0.2731,0.279,0.2862,0.2834,0.2958,0.2987,0.3006,0.3111,0.3157,0.3126,0.331,0.3248,0.3255,0.3234,0.3299,0.3313,0.3326,0.3154,0.3153,0.3153,0,0,0.264,0.2637,0.2672,0.2714,0.2771,0.2801,0.2816,0.2893,0.2952,0.3049,0.305,0.3097,0.32,0.3227,0.3234,0.3338,0.3374,0.3395,0.3414,0.348,0.3492,0.3503,0.3605,0.3623,0.339,0.3391,0.3391,0,0.2657,0.2703,0.2699,0.2752,0.2786,0.2815,0.2887,0.2946,0.3057,0.3097,0.3112,0.3223,0.3247,0.3293,0.3336,0.3362,0.3418,0.3353,0.3491,0.3501,0.3511,0.3612,0.3633,0.3394,0.3394,0.3393,0.3393,0,0.2714,0.2769,0.2786,0.2862,0.2908,0.2979,0.304,0.3131,0.3181,0.3232,0.3339,0.3367,0.3418,0.3451,0.3411,0.3503,0.3531,0.3503,0.3445,0.353,0.3633,0.3653,0.3399,0.3398,0.3397,0.3396,0,0,0.2726,0.2816,0.2833,0.289,0.2978,0.3024,0.3129,0.3229,0.3282,0.3397,0.347,0.352,0.3524,0.3532,0.3526,0.3555,0.3682,0.3555,0.3557,0.3636,0.3874,0.382,0.3836,0.3683,0.3686,0.3688,0.3937,0,0.2797,0.2916,0.2943,0.3068,0.3127,0.3176,0.3261,0.3349,0.3427,0.3523,0.353,0.3618,0.356,0.36,0.3614,0.3684,0.3729,0.3619,0.3796,0.3802,0.3724,0.3854,0.3545,0.3733,0.3956,0.396,0.3962,0,0.2845,0.2931,0.3061,0.3172,0.3198,0.3274,0.3388,0.3477,0.357,0.3633,0.3679,0.3711,0.378,0.3717,0.3848,0.3793,0.3829,0.3858,0.3868,0.3796,0.3781,0.3676,0.376,0.3995,0.3992,0.399,0.3988,0,0.2821,0.2998,0.3109,0.3149,0.328,0.3347,0.3417,0.3513,0.3602,0.3716,0.3815,0.3855,0.3964,0.3981,0.4059,0.3978,0.4214,0.4118,0.41,0.4099,0.3855,0.3827,0.4189,0.4189,0.4188,0.4187,0.4187,0,0.2834,0.2928,0.3123,0.3149,0.3295,0.3374,0.3491,0.3562,0.3695,0.3787,0.3876,0.396,0.404,0.4175,0.4152,0.4236,0.4314,0.4131,0.4158,0.3875,0.3847,0.406,0.4042,0.4197,0.4195,0.4193,0.4191,0,0.2785,0.2887,0.3029,0.321,0.3263,0.337,0.3529,0.3614,0.3769,0.3907,0.3972,0.414,0.4288,0.4387,0.4484,0.4419,0.4458,0.4456,0.4146,0.4127,0.4267,0.425,0.4438,0.4439,0.4439,0.4439,0.4439,0,0.2802,0.2861,0.3053,0.3116,0.3204,0.3364,0.3446,0.3613,0.3702,0.3967,0.4025,0.4271,0.4327,0.4529,0.4485,0.4525,0.4536,0.426,0.399,0.4285,0.4293,0.4275,0.4258,0.3731,0.3725,0.372,0.3716,0,0.2816,0.2866,0.2929,0.3072,0.3183,0.332,0.3452,0.3533,0.3728,0.3858,0.4008,0.4096,0.4319,0.4193,0.4318,0.4253,0.4217,0.4161,0.4598,0.3697,0.3632,0.3635,0.3638,0.3674,0.3679,0.3682,0.3684,0.3686,0.2809,0.2853,0.2887,0.3019,0.3137,0.3229,0.3242,0.3383,0.3473,0.3587,0.3776,0.3808,0.3925,0.3874,0.3806,0.3792,0.4015,0.3817,0.3826,0.384,0.3695,0.3631,0.3651,0.3655,0.3659,0.3662,0.3664,0,0.2763,0.2754,0.284,0.2921,0.2964,0.3135,0.3197,0.3151,0.3159,0.331,0.3373,0.3172,0.315,0.3279,0.3193,0.3227,0.3128,0.3095,0.2923,0.2972,0.3014,0.2817,0.2546,0.2541,0.2537,0.2533,0,0,0.2701,0.2658,0.2682,0.2698,0.2817,0.2836,0.2841,0.2803,0.2799,0.271,0.2715,0.2942,0.3162,0.2767,0.2774,0.2637,0.2752,0.2541,0.3456,0.3302,0.3336,0.3477,0.3238,0,0,0,0,0]},{"header":{"parameterUnit":"m.s-1","parameterCategory":2,"la1":30.2991,"la2":30.254,"lo1":-89.0895,"lo2":-89.0444,"dy":0.0017,"dx":0.0017,"nx":28,"ny":28,"refTime":"2024-06-05T09:00:00:Z","depth":"2","parameterNumber":3,"parameterNumberName":"V-component_of_CURRENTS"},"data":[0,0,0,0,0,0,0,0,0,0,0,0,0,0,0,0,0,0,0,0,0,0,0,0,0,0,0,0,0,0,0,0,0,0,0,0,0,0,0,0,0,0,0,0,0,0,0,0,0,0,0,0,0,0,0,0,0,0,0.0146,0.0147,0,0.0139,0.0138,0.0137,0.0007,0.0005,0.0003,0.0001,-0.0129,-0.0131,-0.0132,0,0,0,0,0,0,0,0,0,0,0,0,0,0.0085,0.0085,0.0146,0.0147,0.0148,0.0139,0.0138,0.0136,0.0008,0.0005,0.0002,-0.0001,-0.0129,-0.0131,-0.0132,0,0,0,0,0,0,0,0,0,0,0,0,0,0.0087,0.0086,0.0146,0.009,0.0086,0.0139,0.0138,0.0136,0.0008,0.0005,0.0001,-0.0002,-0.0129,-0.013,-0.0132,-0.0076,0,0,-0.0138,-0.0139,0,0,0,0,0,0,0,0,0.0087,0.0088,0.0098,0.0095,0.009,0.008,0.0069,0.0063,0.0009,0.0026,0.0,-0.0004,-0.0061,-0.0069,-0.0076,-0.0082,-0.0087,-0.0139,-0.014,-0.0141,-0.0141,0,0,0,0,0,0,0,0.0087,0.0088,0.0132,0.0099,0.0095,0.008,0.0074,0.0067,-0.0009,0.0024,0.0018,0.0036,-0.0066,-0.0074,-0.0081,-0.0089,-0.0139,-0.014,-0.0142,-0.0142,-0.027,-0.0272,0,0,0,0,0,0,0.0113,0.0088,0.0132,0.0133,0.0093,0.0084,0.0078,0.0078,-0.0006,-0.0018,0.0039,0.003,-0.0069,-0.0078,-0.0086,-0.0162,-0.0141,-0.0143,-0.0144,-0.0268,-0.0271,-0.0273,0,0,0,0,0,0,0.0111,0.0116,0.0133,0.012,0.0122,0.009,0.009,0.008,0.0068,0.0008,-0.001,0.0039,-0.0072,-0.0083,-0.0095,-0.0163,-0.0143,-0.0145,-0.0265,-0.0269,-0.0272,-0.0226,0,0,0,0,0,0,0.0109,0.0115,0.012,0.0121,0.0124,0.0147,0.0094,0.0082,0.009,0.0078,0.0004,-0.0013,-0.0076,-0.0091,-0.0096,-0.0166,-0.0147,-0.0262,-0.0267,-0.0271,-0.0225,-0.0227,-0.023,0,0,0,0,0,0.0106,0.0144,0.0119,0.0125,0.0132,0.0149,0.0147,0.0106,0.0094,0.0084,0.0048,-0.0011,-0.0126,-0.009,-0.0097,-0.017,-0.026,-0.0266,-0.027,-0.0224,-0.0227,-0.023,0,0,0,0,0,0,0.0117,0.0135,0.0108,0.0144,0.0136,0.0131,0.0148,0.0129,0.0098,0.009,0.0023,0.0005,-0.0059,-0.0096,-0.0056,-0.0228,-0.0227,-0.0233,-0.019,-0.0193,-0.0195,-0.0158,-0.0148,0,0,0,0,0,0.0128,0.0156,0.0152,0.0179,0.0187,0.0172,0.018,0.015,0.0136,0.0118,0.004,-0.003,-0.008,-0.0114,-0.0179,-0.021,-0.0222,-0.0286,-0.0288,-0.0289,-0.0269,-0.0327,-0.0331,-0.0289,-0.0289,-0.0289,0,0,0.0142,0.0159,0.0171,0.0184,0.0184,0.0201,0.0164,0.0184,0.016,0.0115,0.0039,-0.0026,-0.0087,-0.0166,-0.0203,-0.0204,-0.0306,-0.0296,-0.0295,-0.0274,-0.0332,-0.0336,-0.0339,-0.0293,-0.0292,-0.0291,0,0,0.0193,0.0199,0.0231,0.0238,0.0252,0.0241,0.0255,0.0218,0.0155,0.0113,0.0047,-0.0018,-0.0122,-0.0187,-0.0218,-0.0253,-0.0312,-0.0331,-0.031,-0.0368,-0.037,-0.0372,-0.0369,-0.0371,-0.0338,-0.0337,-0.0337,0,0.0198,0.0228,0.0241,0.0276,0.0277,0.0267,0.0276,0.0249,0.0185,0.0138,0.0079,-0.0072,-0.0129,-0.0179,-0.0229,-0.0256,-0.0285,-0.0284,-0.0365,-0.0368,-0.0371,-0.0367,-0.0371,-0.0336,-0.0336,-0.0336,-0.0336,0,0.0272,0.0281,0.0315,0.0336,0.0342,0.0358,0.0327,0.0281,0.0207,0.0151,0.0036,-0.0049,-0.0143,-0.0205,-0.0222,-0.0299,-0.0309,-0.0351,-0.0341,-0.0372,-0.0367,-0.0371,-0.0334,-0.0334,-0.0335,-0.0335,0,0,0.0291,0.0342,0.0345,0.0344,0.0361,0.0375,0.0348,0.03,0.0287,0.0152,0.0089,-0.0033,-0.0102,-0.0142,-0.0212,-0.0267,-0.0312,-0.0327,-0.033,-0.0291,-0.0409,-0.0412,-0.0417,-0.0386,-0.0387,-0.0388,-0.0386,0,0.0313,0.0369,0.0376,0.0402,0.042,0.0393,0.0372,0.0335,0.0261,0.0194,0.009,0.0009,-0.007,-0.013,-0.0197,-0.0282,-0.0327,-0.0306,-0.0412,-0.0414,-0.0388,-0.0423,-0.0393,-0.0391,-0.039,-0.039,-0.0391,0,0.0368,0.0386,0.0405,0.0407,0.0411,0.0415,0.0379,0.0355,0.03,0.0233,0.0151,0.0073,-0.0012,-0.0093,-0.0228,-0.0223,-0.0312,-0.0375,-0.0378,-0.0395,-0.0426,-0.0371,-0.0398,-0.0398,-0.0397,-0.0397,-0.0396,0,0.0398,0.0405,0.0406,0.0415,0.0426,0.0393,0.038,0.0348,0.0343,0.0259,0.0266,0.0127,0.0088,-0.0071,-0.0199,-0.0239,-0.0326,-0.0396,-0.0465,-0.0463,-0.0461,-0.0458,-0.0492,-0.0492,-0.0492,-0.0492,-0.0492,0,0.0446,0.0448,0.0409,0.044,0.042,0.0402,0.0402,0.0375,0.0364,0.0436,0.0285,0.0331,0.0084,0.0012,-0.0158,-0.0296,-0.0297,-0.0448,-0.0475,-0.0445,-0.0441,-0.0475,-0.0473,-0.0491,-0.0491,-0.0491,-0.0492,0,0.0497,0.0492,0.0497,0.0468,0.0457,0.0439,0.0458,0.0489,0.046,0.0554,0.0538,0.0484,0.0389,0.0176,-0.0031,-0.0195,-0.0364,-0.0411,-0.0325,-0.0345,-0.0472,-0.0468,-0.0512,-0.0512,-0.0512,-0.0513,-0.0513,0,0.052,0.053,0.0524,0.0549,0.053,0.0513,0.0547,0.0527,0.0611,0.0701,0.079,0.071,0.0715,0.0407,0.0072,-0.0229,-0.0282,-0.039,-0.0483,-0.0457,-0.0479,-0.0475,-0.0471,-0.0445,-0.0445,-0.0445,-0.0445,0,0.0547,0.0548,0.0582,0.0624,0.0651,0.0695,0.0753,0.0851,0.0911,0.1007,0.117,0.1157,0.0875,0.0565,0.012,-0.0084,-0.0364,-0.0395,-0.0398,-0.0452,-0.0398,-0.0419,-0.0416,-0.0442,-0.0442,-0.0442,-0.0443,-0.0443,0.0564,0.0592,0.0662,0.0703,0.0768,0.0898,0.1003,0.1123,0.1285,0.1459,0.1449,0.1429,0.1053,0.047,0.0103,-0.0307,-0.0309,-0.047,-0.047,-0.047,-0.0471,-0.0422,-0.0465,-0.0466,-0.0466,-0.0466,-0.0467,0,0.0596,0.0668,0.0737,0.0849,0.098,0.0966,0.1177,0.1305,0.1557,0.1634,0.1712,0.1375,0.0998,0.0569,-0.0043,-0.041,-0.045,-0.051,-0.0493,-0.0492,-0.0492,-0.0494,-0.0495,-0.0496,-0.0497,-0.0498,0,0,0.0639,0.0747,0.0801,0.1021,0.1111,0.13,0.1449,0.1619,0.1727,0.1803,0.176,0.1621,0.1117,0.0672,0.018,-0.0161,-0.0241,-0.0221,-0.016,-0.008,-0.0076,-0.043,-0.0427,0,0,0,0,0]}],[{"header":{"parameterUnit":"m.s-1","parameterCategory":2,"la1":30.2991,"la2":30.254,"lo1":-89.0895,"lo2":-89.0444,"dy":0.0017,"dx":0.0017,"nx":28,"ny":28,"refTime":"2024-06-05T09:00:00:Z","depth":"4","parameterNumber":2,"parameterNumberName":"U-component_of_CURRENTS"},"data":[0,0,0,0,0,0,0,0,0,0,0,0,0,0,0,0,0,0,0,0,0,0,0,0,0,0,0,0,0,0,0,0,0,0,0,0,0,0,0,0,0,0,0,0,0,0,0,0,0,0,0,0,0,0,0,0,0,0,0.1396,0.1397,0,0.1447,0.1448,0.1449,0.1496,0.1496,0.1497,0.1498,0.1553,0.1553,0.1554,0,0,0,0,0,0,0,0,0,0,0,0,0,0.1365,0.1365,0.1396,0.1397,0.1397,0.1447,0.1448,0.1449,0.1496,0.1496,0.1497,0.1498,0.1552,0.1553,0.1554,0,0,0,0,0,0,0,0,0,0,0,0,0,0.1392,0.1365,0.1396,0.1427,0.1431,0.1447,0.1448,0.1449,0.1495,0.1496,0.1497,0.1498,0.1552,0.1553,0.1554,0.1543,0,0,0.1558,0.1559,0,0,0,0,0,0,0,0,0.1391,0.1393,0.1422,0.1425,0.1429,0.1467,0.1457,0.1481,0.1495,0.147,0.1498,0.1499,0.1524,0.1528,0.1534,0.1546,0.1548,0.1559,0.1559,0.156,0.156,0,0,0,0,0,0,0,0.1389,0.1392,0.1416,0.1423,0.1427,0.1448,0.1453,0.1462,0.149,0.1472,0.1476,0.1483,0.1526,0.1533,0.1536,0.1549,0.1559,0.156,0.156,0.1561,0.1648,0.165,0,0,0,0,0,0,0.1381,0.139,0.1414,0.1417,0.1413,0.1448,0.1453,0.1453,0.149,0.1497,0.1482,0.1485,0.153,0.1534,0.1538,0.1617,0.156,0.1561,0.1562,0.1647,0.1649,0.165,0,0,0,0,0,0,0.138,0.1383,0.1412,0.1406,0.1411,0.1447,0.1447,0.1454,0.1491,0.1498,0.1505,0.1516,0.1531,0.1536,0.1577,0.1616,0.1562,0.1563,0.1645,0.1647,0.165,0.1718,0,0,0,0,0,0,0.1379,0.1382,0.1391,0.1405,0.1411,0.1431,0.1446,0.1454,0.1492,0.1497,0.1529,0.1533,0.1532,0.1575,0.1578,0.1617,0.1564,0.1643,0.1646,0.1649,0.1714,0.1722,0.173,0,0,0,0,0,0.1378,0.1377,0.139,0.1394,0.1418,0.1431,0.1437,0.1465,0.1493,0.1504,0.1539,0.1534,0.1596,0.1577,0.1581,0.1621,0.1642,0.1645,0.1649,0.171,0.1721,0.173,0,0,0,0,0,0,0.1372,0.1382,0.1397,0.1402,0.1422,0.144,0.1458,0.1482,0.1519,0.1538,0.155,0.1556,0.1608,0.1602,0.1582,0.1655,0.1619,0.1623,0.1665,0.1675,0.1682,0.1693,0.1565,0,0,0,0,0,0.1373,0.1369,0.1393,0.1396,0.1414,0.1445,0.1461,0.1483,0.1511,0.1531,0.1552,0.1583,0.1619,0.1638,0.1655,0.1691,0.1707,0.172,0.1728,0.1735,0.1747,0.1805,0.182,0.1662,0.1662,0.1662,0,0,0.1366,0.1375,0.1372,0.1394,0.1418,0.144,0.1458,0.1489,0.1524,0.1529,0.1586,0.1611,0.1635,0.1681,0.1704,0.1686,0.1791,0.174,0.1745,0.1753,0.1811,0.1826,0.184,0.1664,0.1664,0.1663,0,0,0.1347,0.137,0.1366,0.1392,0.1432,0.1451,0.1468,0.1506,0.1546,0.1595,0.162,0.167,0.1707,0.1739,0.176,0.1821,0.183,0.183,0.1882,0.1939,0.1953,0.1965,0.2014,0.203,0.1835,0.1835,0.1835,0,0.1352,0.1347,0.1368,0.1389,0.1417,0.146,0.1485,0.1527,0.1574,0.162,0.1622,0.1722,0.1737,0.1818,0.1846,0.1841,0.1874,0.1844,0.1951,0.1963,0.1975,0.2022,0.2038,0.1839,0.1838,0.1838,0.1838,0,0.1328,0.1349,0.1357,0.1392,0.1424,0.1451,0.1514,0.1562,0.1617,0.1664,0.1762,0.1793,0.1858,0.1873,0.1883,0.1978,0.1977,0.1955,0.1928,0.1995,0.204,0.2056,0.1844,0.1843,0.1842,0.1841,0,0,0.1285,0.133,0.1339,0.1368,0.1437,0.1459,0.1535,0.1613,0.1685,0.1747,0.1839,0.1912,0.1952,0.1979,0.2003,0.2053,0.2163,0.2049,0.205,0.2099,0.2301,0.2205,0.2213,0.2169,0.2172,0.2174,0.2303,0,0.1272,0.1294,0.133,0.1377,0.1402,0.1484,0.1551,0.1638,0.1722,0.1817,0.19,0.1993,0.1989,0.2043,0.2095,0.2149,0.2209,0.213,0.2227,0.223,0.2137,0.2229,0.2184,0.2315,0.2319,0.2322,0.2324,0,0.1241,0.1264,0.1301,0.1387,0.1413,0.1458,0.1589,0.1657,0.1807,0.1883,0.1993,0.2066,0.2182,0.2155,0.2293,0.2251,0.2292,0.2318,0.2323,0.222,0.2163,0.2232,0.2353,0.2351,0.2348,0.2346,0.2345,0,0.1184,0.1249,0.1278,0.1308,0.1409,0.147,0.154,0.1684,0.1764,0.1944,0.203,0.2161,0.2258,0.2324,0.2415,0.2369,0.2553,0.2484,0.2435,0.2429,0.2444,0.2429,0.2583,0.2583,0.2582,0.2582,0.2582,0,0.1145,0.1174,0.1262,0.1283,0.1349,0.1448,0.1554,0.1649,0.1802,0.1926,0.207,0.2183,0.2312,0.2437,0.2467,0.2523,0.2605,0.247,0.2465,0.2469,0.2456,0.2456,0.2439,0.2587,0.2586,0.2585,0.2584,0,0.1063,0.1125,0.1162,0.1273,0.1319,0.137,0.1532,0.1612,0.1782,0.1946,0.202,0.2232,0.241,0.2524,0.2658,0.2596,0.2648,0.2649,0.2684,0.2675,0.2463,0.2449,0.2573,0.2571,0.257,0.2568,0.2567,0,0.1002,0.1016,0.1126,0.1159,0.1214,0.1317,0.1397,0.1575,0.1671,0.1974,0.2042,0.2292,0.2435,0.2543,0.2649,0.2723,0.2693,0.2689,0.2532,0.2485,0.2468,0.2456,0.2445,0.2564,0.2563,0.2563,0.2563,0,0.0884,0.0943,0.0979,0.1052,0.1135,0.1214,0.1351,0.1407,0.166,0.184,0.2051,0.2189,0.2391,0.2494,0.26,0.263,0.2662,0.2668,0.2669,0.2522,0.2475,0.2457,0.2448,0.2556,0.2557,0.2558,0.2558,0,0.0791,0.0794,0.0865,0.0925,0.1019,0.1089,0.1179,0.1339,0.1465,0.1816,0.1893,0.2176,0.2387,0.2453,0.2542,0.2584,0.2516,0.2399,0.2412,0.242,0.2312,0.2226,0.2252,0,0,0,0,0,0.0686,0.0703,0.0735,0.0817,0.0908,0.0976,0.1141,0.1252,0.1522,0.1632,0.176,0.1962,0.215,0.2266,0.2277,0.2437,0.249,0.2435,0.2351,0.2522,0.2529,0.2415,0,0,0,0,0,0,0.0631,0.0657,0.0688,0.0712,0.076,0.0867,0.0967,0.1148,0.1219,0.1504,0.1608,0.184,0.2025,0.2136,0.2241,0.2279,0.2185,0.2603,0.2599,0.2518,0.2524,0.253,0.2416,0,0,0,0,0]},{"header":{"parameterUnit":"m.s-1","parameterCategory":2,"la1":30.2991,"la2":30.254,"lo1":-89.0895,"lo2":-89.0444,"dy":0.0017,"dx":0.0017,"nx":28,"ny":28,"refTime":"2024-06-05T09:00:00:Z","depth":"4","parameterNumber":3,"parameterNumberName":"V-component_of_CURRENTS"},"data":[0,0,0,0,0,0,0,0,0,0,0,0,0,0,0,0,0,0,0,0,0,0,0,0,0,0,0,0,0,0,0,0,0,0,0,0,0,0,0,0,0,0,0,0,0,0,0,0,0,0,0,0,0,0,0,0,0,0,0.0352,0.0352,0,0.0378,0.0379,0.0379,0.0355,0.0355,0.0354,0.0353,0.0358,0.0359,0.036,0,0,0,0,0,0,0,0,0,0,0,0,0,0.0259,0.0261,0.0352,0.0352,0.0353,0.0378,0.0379,0.0379,0.0356,0.0355,0.0354,0.0353,0.0358,0.0359,0.036,0,0,0,0,0,0,0,0,0,0,0,0,0,0.0293,0.0262,0.0352,0.0345,0.0345,0.0378,0.0379,0.0379,0.0356,0.0355,0.0353,0.0352,0.0358,0.0359,0.036,0.0393,0,0,0.0364,0.0365,0,0,0,0,0,0,0,0,0.0291,0.0296,0.0346,0.0346,0.0346,0.0364,0.0348,0.0383,0.0356,0.035,0.0353,0.0352,0.036,0.0361,0.0367,0.0393,0.0393,0.0365,0.0365,0.0366,0.0366,0,0,0,0,0,0,0,0.0288,0.0294,0.0361,0.0347,0.0347,0.0334,0.0337,0.0354,0.036,0.0351,0.0349,0.0355,0.036,0.0366,0.0367,0.0394,0.0365,0.0366,0.0367,0.0367,0.0419,0.042,0,0,0,0,0,0,0.0291,0.0293,0.036,0.0362,0.0316,0.0337,0.0341,0.0358,0.036,0.036,0.0356,0.0354,0.0364,0.0365,0.0367,0.0402,0.0366,0.0367,0.0368,0.0419,0.042,0.042,0,0,0,0,0,0,0.029,0.0298,0.0359,0.0328,0.0335,0.034,0.036,0.0359,0.0376,0.0365,0.0364,0.0374,0.0363,0.0365,0.039,0.0402,0.0368,0.0369,0.0418,0.0419,0.042,0.0474,0,0,0,0,0,0,0.0287,0.0297,0.0317,0.0329,0.0337,0.0396,0.0361,0.0361,0.0381,0.0379,0.038,0.0379,0.0362,0.0389,0.0392,0.0403,0.037,0.0417,0.0419,0.042,0.0471,0.0476,0.0481,0,0,0,0,0,0.0284,0.0324,0.0318,0.0326,0.0362,0.0397,0.0401,0.0398,0.0384,0.0405,0.0397,0.0379,0.0396,0.0391,0.0394,0.0406,0.0417,0.0418,0.0419,0.0469,0.0475,0.0481,0,0,0,0,0,0,0.0294,0.0326,0.0319,0.0366,0.0384,0.0394,0.0419,0.0413,0.0426,0.0419,0.0402,0.0401,0.0422,0.0413,0.0407,0.0422,0.0398,0.04,0.0435,0.0441,0.0445,0.0435,0.0371,0,0,0,0,0,0.0306,0.0346,0.0362,0.0401,0.0413,0.0417,0.0433,0.0428,0.0438,0.0442,0.0445,0.0437,0.043,0.0435,0.0435,0.046,0.0408,0.0464,0.0469,0.0473,0.0466,0.0399,0.0396,0.0424,0.0424,0.0424,0,0,0.032,0.0344,0.0366,0.0407,0.0419,0.0447,0.0424,0.0456,0.0473,0.0442,0.0478,0.0463,0.0441,0.0457,0.0464,0.0452,0.0437,0.0474,0.0478,0.0469,0.04,0.0397,0.0394,0.0425,0.0425,0.0425,0,0,0.0371,0.0392,0.0437,0.0456,0.0483,0.0484,0.0498,0.0517,0.0522,0.0552,0.0519,0.0509,0.0531,0.05,0.0488,0.0522,0.0466,0.0527,0.0546,0.0482,0.0479,0.0475,0.0402,0.0392,0.0529,0.0529,0.0529,0,0.0379,0.0439,0.0455,0.0495,0.0513,0.0504,0.054,0.055,0.0573,0.0574,0.0571,0.0554,0.0541,0.0522,0.0528,0.0531,0.0484,0.0528,0.0487,0.0482,0.0477,0.0403,0.0391,0.0532,0.0531,0.0531,0.0531,0,0.0455,0.0497,0.0528,0.057,0.0592,0.0626,0.0631,0.0651,0.065,0.0643,0.0641,0.0615,0.0595,0.0589,0.0572,0.0536,0.0509,0.05,0.047,0.0478,0.0399,0.0385,0.0536,0.0535,0.0534,0.0533,0,0,0.0479,0.0562,0.0573,0.0599,0.0631,0.0656,0.0683,0.0698,0.0708,0.0706,0.0705,0.068,0.0649,0.0631,0.06,0.0546,0.0474,0.0517,0.0512,0.044,0.0321,0.0283,0.0264,0.0459,0.0457,0.0455,0.0278,0,0.0526,0.0616,0.064,0.0705,0.0743,0.0738,0.0767,0.077,0.0769,0.077,0.071,0.0705,0.067,0.066,0.0598,0.0511,0.044,0.0521,0.0328,0.0321,0.0283,0.0248,0.0449,0.0268,0.0264,0.0262,0.026,0,0.0583,0.0638,0.0718,0.077,0.0785,0.0818,0.0841,0.0864,0.0845,0.0841,0.08,0.0758,0.0681,0.0655,0.048,0.0535,0.043,0.0352,0.0343,0.0276,0.0257,0.0259,0.0234,0.0236,0.0238,0.024,0.0241,0,0.0598,0.0683,0.075,0.0771,0.0831,0.0858,0.0882,0.0887,0.0905,0.0884,0.0877,0.0782,0.0732,0.0594,0.0432,0.0455,0.0223,0.0233,0.0088,0.0084,0.0149,0.0154,0.0089,0.009,0.009,0.009,0.0091,0,0.0634,0.0686,0.0769,0.0807,0.0874,0.0897,0.0952,0.0962,0.0965,0.0976,0.0915,0.0878,0.0714,0.0568,0.0424,0.0201,0.0206,0.007,0.003,0.0176,0.0187,0.0138,0.0146,0.0084,0.0085,0.0087,0.0088,0,0.0644,0.0701,0.0777,0.0859,0.0891,0.0937,0.1008,0.1041,0.1041,0.1047,0.104,0.0927,0.0739,0.0549,0.0308,0.0187,-0.0012,-0.0095,0.0056,0.0031,-0.0107,-0.0093,-0.027,-0.0273,-0.0276,-0.0278,-0.028,0,0.0657,0.0704,0.0817,0.0864,0.091,0.0988,0.1045,0.1082,0.1105,0.1068,0.1056,0.0894,0.0795,0.0415,0.0222,-0.0084,-0.0118,-0.0223,-0.015,-0.0126,-0.0147,-0.0129,-0.0113,-0.0284,-0.0284,-0.0285,-0.0286,0,0.0667,0.0714,0.0779,0.0889,0.0967,0.1046,0.1118,0.1135,0.1161,0.1162,0.1053,0.0876,0.0649,0.0389,0.0141,-0.0068,-0.0148,-0.0249,-0.0244,-0.0177,-0.0144,-0.0158,-0.014,-0.0294,-0.0293,-0.0292,-0.0292,0,0.0665,0.0708,0.0801,0.0889,0.099,0.1066,0.1112,0.1128,0.1147,0.1107,0.1061,0.0848,0.0728,0.0392,0.0166,-0.0049,-0.0087,-0.0132,-0.0133,-0.0126,-0.0022,0.0045,-0.0102,0,0,0,0,0,0.0653,0.0704,0.079,0.0894,0.0997,0.1062,0.1139,0.1171,0.1196,0.1126,0.1094,0.0889,0.0554,0.0404,0.0179,0.0116,-0.0129,-0.0154,-0.0181,-0.0342,-0.0332,-0.0237,0,0,0,0,0,0,0.0645,0.0725,0.0779,0.0883,0.0955,0.1073,0.1128,0.1151,0.1097,0.1087,0.0904,0.0838,0.0501,0.0682,0.0177,0.0111,0.0064,-0.0305,-0.031,-0.0348,-0.0339,-0.0331,-0.0229,0,0,0,0,0]}]]